Погода в Суемцах

Украина / Житомирская область     50°24′20″N   27°34′07″E
темп.,
°C
ветер,
м/с
пор.,
м/с
влажн.,
%
обл.,
%
осадки,
мм/ч
давл.,
гПа
погр.,
м
18 октября, пн
пн1800:00+5з3468100 0.0 102286
03:00+5зюз4870100 0.0 1021215
06:00+6зюз41065100 0.0 1020400
09:00+7зюз41064100 0.0 1021481
12:00+9з6960100 0.0 1021804
15:00+8з5978100 0.1 1021945
18:00+8з4978100 0.0 1021484
21:00+8зсз51182100 0.5 1022524
19 октября, вт
вт1900:00+7сз488089 0.6 1023508
03:00+3сз379152 0.6 1024129
06:00+2сз358632 0.0 102678
09:00+3зсз37825 0.0 1027195
12:00+8сз465654 0.0 1028881
15:00+9зсз56395 0.0 10271188
18:00+6зсз225024 0.0 102715
21:00+4зюз1152100 0.0 102810
20 октября, ср
ср2000:00+4ю3354100 0.0 102731
03:00+5ю3554100 0.0 1027111
06:00+6ю4958100 0.0 1025204
09:00+7ююз51180100 0.0 1024280
12:00+13ююз71056100 0.0 1022606
15:00+15юз6115099 0.0 1019931
18:00+13юз51153100 0.0 1018453
21:00+13юз61451100 0.0 1017593
21 октября, чт
чт2100:00+10ююз41163100 0.0 1016238
03:00+10ююз41165100 0.0 1015226
06:00+9ююз41166100 0.0 1014210
09:00+10ююз51263100 0.0 1012263
12:00+16ююз61046100 0.0 1011433
15:00+19юз61340100 0.0 10091080
18:00+16зюз81543100 0.0 1008834
21:00+14зюз71458100 0.0 1009633
22 октября, пт
пт2200:00+13зюз61367100 0.0 1010547
03:00+10зюз4118095 0.0 1010297
06:00+9юз3787100 0.0 1011147
09:00+10ююз3783100 0.0 1011189
12:00+16юз4756100 0.0 1011492
15:00+18ююз694514 0.0 10091334
18:00+16ююз51254100 0.0 1008448
21:00+15ююз51258100 0.0 1008347